EHI
0 0 0 0 0 0 0 0 0 0 0 0 0 0 0 0 0 0 0 0 0 0 0 0 0 0 0 0 0 0 0 0 0 0 0 0 0 0 0 0 0 0 0
0 0 0 0 0 0 0 0 0 0 0 0 0 0 0 0 0 0 0 0 0 0 0 0 0 0 0 0 0 0 0 0 0 0 0 0 0 0 0 0 0 0 0
0 0 0 0 0 0 0 0 0 0 0 0 0 0 0 0 0 0 0 0 0 0 0 0 0 0 0 0 0 0 0 0 0 0 0 0 0 0 0 0 0 0 0
0 0 0 0 0 0 0 0 0 0 0 0 0 0 0 0 0 0 0 0 0 0 0 0 0 0 0 0 0 0 0 0 0 0 0 0 0 0 0 0 0 0 0
0 0 0 0 0 0 0 0 0 0 0 0 0 0 0 0 0 0 0 0 0 0 0 0 0 0 0 0 0 0 0 0 0 0 0 0 0 0 0 0 0 0 0
0 0 0 0 0 0 0 0 0 0 0 0 0 0 0 0 0 0 0 0 0 0 0 0 0 0 0 0 0 0 0 0 0 0 0 0 0 0 0 0 0 0 0
0 0 0 0 0 0 0 0 0 0 0 0 0 0 0 0 0 0 0 0 0 0 0 0 0 0 0 0 0 0 0 0 0 0 0 0 0 0 0 0 0 0 0
0 0 0 0 0 0 0 0 0 0 0 0 0 0 0 0 0 0 0 0 0 0 0 0 0 0 0 0 0 0 0 0 0 0 0 0 0 0 0 0 0 0 0
0 0 0 0 0 0 0 0 0 0 0 0 0 0 0 0 0 0 0 0 0 0 0 0 0 0 0 0 0 0 0 0 0 0 0 0 0 0 0 0 0 0 0
0 0 0 0 0 0 0 0 0 0 0 0 0 0 0 0 0 0 0 0 0 0 0 0 0 0 0 0 0 0 0 0 0 0 0 0 0 0 0 0 0 0 0
0 0 0 0 0 0 0 0 0 0 0 0 0 0 0 0 0 0 0 0 0 0 0 0 0 0 0 0 0 0 0 0 0 0 0 0 0 0 0 0 0 0 0
0 0 0 0 0 0 0 0 0 0 0 0 0 0 0 0 0 0 0 0 0 0 0 0 0 0 0 0 0 0 0 0 0 0 0 0 0 0 0 0 0 0 0
0 0 0 0 0 0 0 0 0 0 0 0 0 0 0 0 0 0 0 0 0 0 0 0 0 0 0 0 0 0 0 0 0 0 0 0 0 0 0 0 0 0 0
0 0 0 0 0 0 0 0 0 0 0 0 0 0 0 0 0 0 0 0 0 0 0 0 0 0 0 0 0 0 0 0 0 0 0 0 0 0 0 0 0 0 0
0 0 0 0 0 0 0 0 0 0 0 0 0 0 0 0 0 0 0 0 0 0 0 0 0 0 0 0 0 0 0 0 0 0 0 0 0 0 0 0 0 0 0
0 0 0 0 0 0 0 0 0 0 0 0 0 0 0 0 0 0 0 0 0 0 0 0 0 0 0 0 0 0 0 0 0 0 0 0 0 0 0 0 0 0 0
0 0 0 0 0 0 0 0 0 0 0 0 0 0 0 0 0 0 0 0 0 0 0 0 0 0 0 0 0 0 0 0 0 0 0 0 0 0 0 0 0 0 0
0 0 0 0 0 0 0 0 0 0 0 0 0 0 0 0 0 0 0 0 0 0 0 0 0 0 0 0 0 0 0 0 0 0 0 0 0 0 0 0 0 0 0
0 0 0 0 0 0 0 0 0 0 0 0 0 0 0 0 0 0 0 0 0 0 0 0 0 0 0 0 0 0 0 0 0 0 0 0 0 0 0 0 0 0 0
0 0 0 0 0 0 0 0 0 0 0 0 0 0 0 0 0 0 0 0 0 0 0 0 0 0 0 0 0 0 0 0 0 0 0 0 0 0 0 0 0 0 0
0 0 0 0 0 0 0 0 0 0 0 0 0 0 0 0 0 0 0 0 0 0 0 0 0 0 0 0 0 0 0 0 0 0 0 0 0 0 0 0 0 0 0
0 0 0 0 0 0 0 0 0 0 0 0 0 0 0 0 0 0 0 0 0 0 0 0 0 0 0 0 0 0 0 0 0 0 0 0 0 0 0 0 0 0 0
0 0 0 0 0 0 0 0 0 0 0 0 0 0 0 0 0 0 0 0 0 0 0 0 0 0 0 0 0 0 0 0 0 0 0 0 0 0 0 0 0 0 0
0 0 0 0 0 0 0 0 0 0 0 0 0 0 0 0 0 0 0 0 0 0 0 0 0 0 0 0 0 0 0 0 0 0 0 0 0 0 0 0 0 0 0
0 0 0 0 0 0 0 0 0 0 0 0 0 0 0 0 0 0 0 0 0 0 0 0 0 0 0 0 0 0 0 0 0 0 0 0 0 0 0 0 0 0 0
0 0 0 0 0 0 0 0 0 0 0 0 0 0 0 0 0 0 0 0 0 0 0 0 0 0 0 0 0 0 0 0 0 0 0 0 0 0 0 0 0 0 0
Wind_Speed
5 4 5 4 4 4 4 3 2 2 2 2 2 3 3 3 3 3 4 4 4 3 2 2 2 1 1 1 2 1 1 2 1 0 1 2 3 3 3 3 4 5 6
4 4 4 4 4 3 3 3 2 1 2 1 1 1 2 3 3 3 4 4 4 4 3 2 2 2 1 1 1 1 1 1 2 2 1 1 2 2 3 3 4 5 4
8 6 5 4 4 3 2 2 1 1 1 2 1 2 2 3 3 4 4 4 4 4 3 3 2 2 1 1 2 1 1 1 1 2 2 2 2 2 2 2 3 3 3
7 6 6 5 4 3 2 2 1 0 1 2 2 2 2 2 3 3 3 5 4 4 4 3 2 2 1 1 2 1 1 2 2 1 2 2 2 1 2 2 1 2 3
8 7 6 6 4 4 3 2 1 1 2 2 2 1 2 2 3 3 4 4 4 4 4 3 2 2 1 2 2 2 2 2 2 2 2 1 1 2 2 2 1 1 2
6 6 5 5 3 3 2 2 1 1 2 2 2 1 2 3 4 4 4 4 3 3 4 4 3 2 2 2 2 2 2 2 2 2 2 2 2 2 2 3 2 2 2
7 6 6 5 4 3 3 2 1 1 2 2 2 1 1 2 2 3 3 3 3 3 4 4 3 3 3 2 2 2 2 2 2 3 3 3 3 2 2 2 2 2 2
6 7 7 6 5 5 4 3 2 1 1 1 2 2 1 1 2 2 2 3 3 3 4 4 3 3 3 3 2 2 2 2 2 2 2 2 2 3 3 3 2 2 2
7 7 6 6 5 5 4 4 3 2 1 1 1 1 2 2 2 3 3 3 3 3 4 4 4 3 3 3 2 1 2 2 2 2 2 2 2 2 3 3 3 3 3
6 6 6 6 5 4 4 4 3 3 2 1 0 0 2 2 2 2 3 4 4 4 5 5 5 4 3 3 2 2 2 2 2 1 1 1 1 2 2 2 3 3 4
7 7 6 6 5 4 4 4 3 2 2 1 1 1 2 2 2 2 3 3 3 4 5 5 5 5 4 4 3 3 3 3 3 2 1 2 2 1 1 2 2 3 3
7 7 6 5 4 4 4 4 4 3 3 2 1 0 1 2 2 3 3 3 4 4 4 4 5 5 5 4 4 4 4 3 3 2 2 2 2 1 1 1 2 3 3
6 5 5 5 5 5 5 5 5 4 3 2 1 0 1 1 1 2 3 3 3 4 4 4 4 4 4 4 4 3 4 3 3 2 2 2 1 2 2 2 2 2 3
7 6 6 6 6 5 5 5 5 4 4 3 2 1 1 1 1 2 2 2 3 3 3 3 3 4 4 4 4 4 4 4 4 3 2 2 2 2 2 2 2 2 2
6 7 7 6 6 5 5 5 5 4 4 4 3 3 2 2 1 1 2 2 3 3 3 3 4 4 3 3 3 4 4 4 4 4 4 3 3 3 2 1 1 1 2
7 8 7 6 6 6 6 6 6 5 4 5 4 4 3 2 1 1 1 2 3 3 3 3 3 4 3 6 6 4 3 3 3 4 4 4 3 5 5 4 2 2 2
7 7 7 7 7 7 7 7 7 5 5 5 4 4 3 2 2 2 1 2 3 2 3 3 3 3 5 7 6 6 3 3 3 3 3 3 3 4 3 4 4 3 3
6 6 6 6 6 5 6 5 5 5 5 4 4 4 4 3 3 2 2 3 2 2 3 3 3 3 5 7 6 5 3 3 3 3 3 3 4 4 3 3 3 3 3
6 5 5 5 5 5 5 5 4 4 4 4 4 5 5 4 3 3 4 3 2 3 3 3 4 4 6 7 6 4 2 2 4 4 3 3 3 5 5 3 3 4 4
5 5 4 4 4 4 5 6 4 4 5 5 5 5 5 5 5 5 4 3 3 3 4 4 4 4 5 7 6 3 0 2 3 3 4 5 5 6 5 2 2 4 4
5 6 6 4 4 4 5 5 4 5 6 5 4 4 4 5 5 4 3 3 3 3 4 4 5 4 5 6 6 3 1 1 2 2 3 4 8 7 6 4 2 4 4
5 6 5 4 3 4 5 4 3 4 4 4 4 4 4 4 3 4 4 3 3 3 4 4 5 4 4 5 5 5 4 3 2 3 3 4 8 8 8 5 5 6 4
5 4 5 4 2 2 4 3 2 2 2 2 3 4 4 4 3 4 4 3 2 3 3 3 4 4 3 4 6 6 5 4 2 3 6 7 9 8 6 6 7 5 2
5 5 6 5 2 1 1 1 1 1 2 1 2 3 3 4 3 3 3 3 3 3 3 3 4 4 3 3 3 3 3 3 3 3 5 7 7 5 6 6 4 2 2
4 5 6 5 3 3 3 2 1 2 1 0 1 2 2 3 3 3 3 4 4 4 4 4 4 4 5 6 6 4 3 3 3 2 2 3 3 4 4 4 4 3 2
5 6 6 5 4 4 4 3 2 2 3 2 2 2 2 2 2 3 4 4 4 6 5 5 4 4 7 8 6 7 6 4 2 0 2 3 3 4 4 5 4 4 3
Wind_Direction
165 150 141 132 111 86 81 71 59 22 15 3 352 342 336 327 328 327 330 330 330 332 333 326 316 318 285 264 255 232 231 233 186 167 292 277 244 229 221 208 195 208 214
152 151 142 127 114 107 96 76 63 38 11 339 308 286 293 299 299 318 331 330 328 327 333 331 317 308 301 319 306 250 225 230 171 154 166 294 308 265 229 206 205 210 206
166 165 150 139 130 125 125 103 94 62 7 351 344 343 348 337 340 337 332 326 325 324 325 319 317 315 313 288 276 241 196 224 228 183 172 183 230 287 289 222 211 201 201
163 162 155 152 154 163 150 129 129 92 337 3 12 0 351 327 305 305 311 321 328 330 327 322 319 317 311 293 281 255 214 196 218 232 217 206 187 201 304 311 249 211 208
166 163 163 166 166 168 158 153 156 281 323 356 8 5 339 311 310 320 331 334 330 332 334 331 330 318 305 292 287 283 250 207 201 206 209 213 214 205 202 266 285 269 228
165 160 163 162 163 168 164 156 153 286 320 347 6 9 342 339 345 340 339 335 328 327 333 329 331 318 306 301 291 275 260 237 225 217 205 191 196 203 197 228 251 257 256
162 162 165 172 179 184 187 177 164 267 306 335 347 328 322 331 332 322 328 331 329 322 322 327 317 310 299 295 300 294 280 253 241 228 219 206 208 200 190 204 229 247 265
176 177 180 181 189 193 188 184 183 224 287 315 316 312 325 318 313 314 314 320 312 303 311 320 320 320 321 321 319 307 292 273 255 249 227 218 220 203 195 192 191 238 268
189 187 186 186 193 194 194 189 181 196 259 286 318 332 343 337 327 327 329 324 323 325 334 337 341 341 341 336 339 325 307 306 279 263 245 232 232 217 207 198 191 193 229
194 189 189 193 197 196 193 185 176 184 211 241 289 5 334 327 331 343 346 342 340 346 352 358 358 358 360 355 359 340 324 334 317 288 272 262 250 243 216 206 209 205 207
190 192 195 198 195 187 182 178 180 179 200 220 244 11 335 339 353 351 339 342 348 354 4 5 10 12 10 6 13 358 358 353 334 335 329 299 282 256 234 219 217 219 208
190 191 192 192 191 192 190 188 189 191 206 207 190 338 345 3 7 349 340 349 355 358 5 13 18 16 12 10 12 2 359 355 342 330 332 313 308 287 270 244 236 230 220
187 189 191 196 201 203 201 197 198 202 204 189 171 112 357 3 350 332 337 350 356 358 6 14 14 9 5 6 4 360 351 347 332 320 312 299 308 294 278 267 248 238 236
188 187 198 211 214 210 204 200 206 203 193 184 180 196 236 248 282 313 334 339 346 354 354 355 354 353 356 358 355 355 353 350 345 339 324 303 298 278 274 270 261 246 238
197 197 202 212 215 212 209 204 206 202 188 181 192 213 223 228 270 323 325 328 342 345 339 344 344 343 344 345 349 347 351 353 352 349 342 321 317 309 299 271 255 245 237
202 202 203 203 205 203 202 199 205 203 184 185 203 213 214 225 254 281 301 324 335 335 337 335 334 337 335 341 348 350 347 344 348 341 335 331 340 347 346 330 294 249 231
198 196 198 200 201 200 195 195 201 191 183 194 207 208 208 218 241 259 288 305 309 314 316 315 324 320 315 326 338 347 353 345 337 336 335 337 348 352 340 340 344 321 290
189 193 195 198 201 197 195 192 183 177 184 197 209 211 208 219 232 246 267 278 281 285 289 294 303 305 309 321 331 341 356 348 342 341 336 329 326 332 342 344 343 333 321
181 185 185 181 180 183 179 158 163 174 183 202 213 216 210 215 225 241 255 259 264 277 276 279 287 291 300 311 318 334 348 345 339 336 341 342 334 335 354 358 338 325 320
159 157 150 142 154 173 154 142 158 171 199 212 215 215 210 211 222 235 245 246 244 261 279 286 281 272 280 292 302 313 347 332 326 329 334 342 342 339 348 345 330 322 315
154 145 136 141 167 166 148 148 161 200 218 212 208 213 217 220 227 236 241 247 257 278 290 291 289 280 273 284 286 274 209 251 299 313 317 318 332 336 334 330 302 295 304
151 143 136 144 157 154 147 153 195 228 221 206 212 229 235 236 230 230 250 252 255 275 288 296 299 289 281 273 276 267 242 221 241 279 289 299 317 325 326 323 312 316 327
158 147 139 132 118 135 140 154 231 229 198 203 236 254 263 261 251 237 249 258 250 251 270 275 282 289 286 278 274 270 259 247 236 263 281 299 313 320 320 315 318 326 330
152 141 131 129 125 106 111 170 254 185 150 195 260 278 287 293 288 263 246 243 249 250 260 262 264 274 283 275 267 265 265 267 271 287 301 310 315 312 299 305 314 310 280
150 137 135 132 119 89 65 30 29 97 109 28 326 316 306 302 306 297 262 245 241 229 234 248 244 249 270 265 233 213 225 227 245 286 318 326 327 325 319 313 302 294 294
140 129 127 123 112 88 62 29 26 73 88 59 12 348 332 326 323 318 320 302 288 312 301 287 279 262 259 276 259 238 236 238 248 300 305 304 303 299 300 301 302 292 275